Location: Eppenbrunn
(49.1158°N, 7.5601°E)
Time: 16:51:40
(UTC+00:00)

COSMOS 2406 - Pass Details

Date: 09 April 2020
Orbit: 842 x 865 km, 71.0° (Epoch: 28 May)

Event Time Altitude Azimuth Distance (km) Brightness Sun altitude
Exits shadow 20:55:06 27° 202° (SSW) 1,589 4.4 -23.5°
Maximum altitude 20:58:22 84° 117° (ESE) 861 3.1 -23.8°
Drops below altitude 10° 21:04:07 10° 30° (NNE) 2,493 5.9 -24.5°
Sets 21:06:35 0° 29° (NNE) 3,437 6.6 -24.7°
